This demonstration page uses our WeatherBlox Daily Observations layout. Learn more.

Left ArrowRight Arrow

Hourly Observations for February 16, 2015

Temp ( °F °C ) Dew Point ( °F °C ) Humidity (%) Winds ( mph kmh ) Pressure ( in mb ) Visibility ( mi km ) Precip ( " mm )
12:51 am 00:51 Clear 57 13.9 41 5 55 55 VRB 3 6 29.88 1012 10 16 N/A
1:51 am 01:51 Clear 55 12.8 41 5 59 59 NW 9 15 29.88 1012 10 16 N/A
2:51 am 02:51 Clear 57 13.9 42 5.6 58 58 NW 14 22 29.87 1011 10 16 N/A
3:51 am 03:51 Clear 57 13.9 43 6.1 60 60 NW 13 20 29.85 1011 10 16 N/A
4:51 am 04:51 Clear 54 12.2 42 5.6 64 64 W 5 7 29.85 1011 10 16 N/A
5:51 am 05:51 Clear 49 9.4 41 5 74 74 E 5 7 29.88 1012 10 16 N/A
6:51 am 06:51 Clear 46 7.8 40 4.4 79 79 E 7 11 29.91 1013 10 16 N/A
7:51 am 07:51 Sunny 49 9.4 41 5 74 74 E 5 7 29.93 1014 10 16 N/A
8:51 am 08:51 Sunny 52 11.1 42 5.6 69 69 SSE 5 7 29.95 1014 10 16 N/A
9:51 am 09:51 Sunny 57 13.9 43 6.1 60 60 WNW 3 6 29.96 1014 10 16 N/A
10:51 am 10:51 Sunny 64 17.8 43 6.1 46 46 NW 10 17 29.93 1014 10 16 N/A
11:51 am 11:51 Sunny 68 20 42 5.6 39 39 WNW 13 20 29.89 1012 10 16 N/A
12:51 pm 12:51 Sunny 69 20.6 42 5.6 38 38 WNW 13 20 29.85 1011 10 16 N/A
1:51 pm 13:51 Sunny 71 21.7 42 5.6 35 35 NW 20 31 29.80 1009 10 16 N/A
2:51 pm 14:51 Sunny 73 22.8 38 3.3 28 28 WNW 20 31 29.76 1008 10 16 N/A
3:51 pm 15:51 Sunny 72 22.2 36 2.2 27 27 NW 25 41 29.74 1007 10 16 N/A
4:51 pm 16:51 Sunny 70 21.1 35 1.7 28 28 NW 28 44 29.75 1008 10 16 N/A
5:51 pm 17:51 Sunny 66 18.9 33 0.6 29 29 WNW 18 30 29.78 1009 10 16 N/A
6:51 pm 18:51 Clear 63 17.2 37 2.8 38 38 WNW 22 35 29.83 1010 10 16 N/A
7:51 pm 19:51 Clear 59 15 38 3.3 46 46 NNW 9 15 29.84 1011 10 16 N/A
8:51 pm 20:51 Clear 59 15 40 4.4 49 49 NNW 10 17 29.86 1011 10 16 N/A
9:51 pm 21:51 Clear 59 15 40 4.4 49 49 NW 10 17 29.87 1012 10 16 N/A
10:51 pm 22:51 Clear 59 15 39 3.9 48 48 NNW 10 17 29.87 1012 10 16 N/A
11:51 pm 23:51 Clear 57 13.9 40 4.4 53 53 N 9 15 29.88 1012 10 16 N/A

Powered by AerisWeather